Wind_Speed
28 30 32 33 35 36 38 39 40 41 42 44 45 46 47 48 49 49 50 52 53 54 55 57 58 60 62 63 66 68 70 72 74 77 79 81 84 86 87 88 88 88 87
31 33 34 36 38 39 41 42 43 44 44 45 47 48 49 50 51 52 53 55 56 57 59 60 62 63 65 67 69 71 73 76 78 80 83 86 88 90 92 93 94 94 93
35 36 37 39 41 42 44 45 46 47 47 48 49 50 51 53 54 55 57 58 59 60 62 63 65 66 68 70 72 75 77 80 82 85 87 89 91 94 97 99 100 101 101
38 39 41 42 44 46 47 48 50 50 50 50 51 52 53 54 56 58 59 61 62 63 65 66 68 69 71 73 75 78 81 83 85 87 89 92 94 97 99 102 106 108 109
42 43 44 45 47 49 50 51 53 53 53 53 53 53 54 56 58 60 61 63 65 66 67 69 70 71 73 76 78 80 83 85 87 89 91 93 94 96 99 103 107 111 114
45 46 47 49 50 51 52 54 55 56 55 55 54 55 56 57 59 61 63 65 67 68 70 71 72 74 75 78 80 82 83 85 87 89 91 92 93 95 97 100 105 110 115
48 49 50 52 53 54 55 57 57 57 57 57 56 56 57 58 60 62 64 66 68 70 72 73 74 76 77 78 80 81 83 85 87 88 89 90 91 92 94 96 100 106 113
51 52 53 54 55 56 58 58 59 59 59 59 59 59 59 60 61 62 65 67 69 71 73 75 76 77 78 79 80 81 82 83 85 86 86 86 87 87 89 91 96 102 109
54 54 55 57 58 59 59 60 60 61 61 61 61 61 62 63 64 64 65 68 70 72 74 76 77 78 80 80 81 80 81 81 81 82 81 80 79 79 81 84 89 95 103
56 57 58 59 59 60 60 61 62 62 62 62 62 62 63 64 65 65 66 69 70 72 74 76 77 79 80 81 80 79 78 78 78 78 76 73 71 70 72 75 79 86 95
58 59 59 60 60 61 62 62 63 63 63 63 63 63 63 65 67 67 67 68 70 72 74 76 77 79 80 81 79 77 76 75 74 73 70 66 64 63 64 66 71 78 86
59 60 61 61 62 63 63 63 64 64 64 63 63 63 65 67 69 69 68 68 70 71 73 75 77 78 79 79 77 75 73 72 70 68 64 61 58 57 58 61 66 71 78
60 60 61 62 62 63 62 63 64 64 63 63 64 64 66 68 69 70 70 69 69 69 71 74 76 78 78 77 75 72 70 68 66 63 59 55 53 51 53 55 59 65 71
60 61 62 63 63 63 63 63 63 63 63 64 64 65 67 69 69 70 70 70 69 69 69 71 74 76 76 75 72 70 67 65 62 58 54 51 49 47 47 50 54 60 67
62 62 63 63 63 63 63 63 63 63 64 65 65 66 68 69 69 69 70 70 70 69 68 68 71 72 73 72 69 67 65 62 59 55 51 48 46 44 44 45 50 56 63
62 62 62 62 63 63 64 64 64 65 65 65 66 66 68 68 69 69 69 69 70 70 70 67 68 69 70 69 66 64 62 60 56 53 49 47 44 42 41 43 47 52 59
62 62 62 62 62 63 63 64 64 65 65 65 65 65 67 67 68 68 68 68 68 70 70 67 66 66 66 65 62 61 60 57 54 51 48 46 43 40 38 40 45 51 58
62 62 62 62 62 62 63 63 64 65 65 64 64 65 65 66 66 67 66 66 67 69 70 68 65 64 63 61 59 58 56 54 52 49 47 45 42 39 37 39 45 52 60
60 60 61 61 61 62 62 62 63 63 63 62 63 63 64 65 65 65 65 65 66 67 68 67 64 62 60 58 57 55 53 51 49 47 46 44 41 38 36 38 45 53 61
58 59 60 60 60 60 60 60 61 62 61 61 62 62 63 63 63 63 63 64 65 65 65 65 63 60 58 57 56 54 50 48 47 46 44 42 40 37 35 37 45 54 62
58 58 58 58 58 57 58 58 59 60 59 59 59 60 61 61 61 62 62 62 63 63 63 63 62 59 56 56 54 52 49 46 44 45 43 41 39 35 34 36 45 55 62
57 57 57 56 55 55 56 57 58 58 58 58 58 58 59 59 60 60 60 60 61 62 62 61 60 57 55 54 52 49 48 46 42 42 43 39 36 32 32 34 44 55 63
55 54 54 54 54 54 55 56 56 56 56 56 56 57 58 58 58 58 58 58 58 59 60 59 58 55 54 53 50 47 46 45 43 41 40 36 33 30 29 33 43 55 64
52 53 53 53 53 53 54 54 55 54 53 54 55 56 56 56 57 57 56 55 56 56 56 56 55 53 52 50 48 46 45 43 40 39 38 34 30 27 27 31 43 57 66
51 52 52 53 53 53 53 53 53 52 51 52 53 54 54 54 55 56 55 54 54 53 53 53 52 51 50 47 46 45 43 41 38 37 35 31 27 24 23 29 43 58 67
50 52 53 53 53 52 52 53 52 50 50 51 51 52 53 53 54 54 53 53 52 52 52 50 49 48 47 45 44 43 41 39 37 33 31 28 25 21 20 26 40 59 68
Wind_Direction
311 312 312 311 311 310 308 305 302 299 297 294 293 292 291 290 289 289 289 289 289 288 287 286 284 283 281 279 277 275 273 270 268 265 262 259 256 252 250 248 247 246 246
309 310 311 312 312 311 310 309 306 303 300 297 295 294 293 293 292 291 291 291 291 290 290 289 288 287 285 284 282 280 278 276 274 271 268 264 260 256 251 248 246 244 243
305 307 308 310 311 311 310 310 309 307 303 300 297 296 295 295 294 294 293 293 293 293 293 292 291 290 289 288 287 285 284 282 280 276 273 269 263 259 255 250 246 242 241
303 304 305 307 309 309 309 309 309 308 305 302 300 298 297 296 296 296 295 295 295 295 295 294 294 293 292 291 290 289 288 286 283 281 277 272 267 262 257 252 246 242 239
302 303 304 305 307 308 308 308 308 308 306 304 301 299 298 298 297 297 297 297 297 297 297 296 296 295 295 294 293 293 291 289 286 283 280 276 271 265 259 254 248 242 238
301 302 303 304 305 306 306 307 307 307 306 304 302 300 300 299 299 299 299 299 299 299 299 298 298 298 298 297 296 295 293 291 289 286 283 278 274 268 262 255 248 242 237
300 301 302 303 304 304 305 305 306 306 305 304 302 300 300 300 300 300 301 301 301 301 300 300 300 300 300 299 298 297 295 293 291 289 285 281 276 270 263 256 249 242 237
299 300 300 301 302 303 303 304 305 305 304 304 302 300 299 299 299 301 302 302 302 302 302 302 302 302 302 301 300 299 298 296 294 291 288 284 278 271 265 257 250 243 236
297 298 299 300 300 301 302 303 303 304 304 304 302 301 300 300 300 301 302 303 303 304 304 304 304 304 304 304 303 301 300 298 296 294 290 286 280 272 265 257 250 243 236
297 297 298 298 299 300 301 302 302 303 304 303 302 302 301 301 301 302 303 303 304 304 305 305 305 306 306 306 305 303 301 300 298 296 293 288 281 272 264 257 249 242 236
296 296 296 297 298 299 300 301 301 302 303 303 302 302 302 303 302 303 304 304 305 306 306 306 306 307 307 307 307 305 303 302 301 298 295 289 282 272 263 255 246 240 234
295 295 295 296 297 298 299 300 300 302 302 302 303 303 303 304 304 304 304 305 306 307 307 307 307 308 308 308 308 306 305 304 303 300 296 290 283 274 262 253 244 237 231
294 294 294 295 296 298 299 300 301 302 303 303 303 304 304 305 305 304 305 306 307 308 308 309 309 309 309 309 309 307 306 306 305 301 296 291 285 274 263 253 243 234 228
293 293 294 295 296 297 298 300 301 302 303 303 304 305 305 305 305 305 306 307 307 309 310 310 310 310 310 310 309 308 308 308 306 302 297 292 285 275 262 252 240 231 225
292 293 294 295 296 297 298 300 301 302 303 304 304 305 305 306 305 305 306 307 308 310 311 312 311 311 311 311 310 309 309 309 307 304 299 294 286 275 262 250 237 228 222
293 294 294 295 296 297 298 299 300 301 303 304 304 304 305 305 305 306 307 308 309 311 313 314 313 312 311 311 310 310 310 309 308 305 300 295 288 277 262 248 232 224 218
293 293 294 295 296 297 298 299 300 301 303 303 304 304 305 305 306 306 307 308 310 312 314 315 314 314 313 312 311 310 311 310 309 307 302 296 290 278 261 244 229 221 213
293 294 295 296 297 297 298 300 301 301 303 303 303 304 305 305 306 307 308 309 311 312 314 316 316 315 314 312 312 312 311 310 309 307 304 299 292 279 260 241 226 218 210
295 295 296 297 297 298 298 300 300 301 303 302 303 304 304 306 306 307 308 310 311 313 315 316 317 316 314 313 313 313 312 310 309 308 305 300 293 280 259 241 225 214 207
295 296 296 297 297 297 298 298 299 301 302 302 303 304 305 306 307 307 309 310 312 314 315 316 317 317 316 315 314 314 313 312 310 308 307 302 294 280 259 240 222 210 204
295 296 296 297 297 297 298 298 299 301 301 301 302 303 305 306 307 308 309 311 313 314 315 317 318 318 317 317 316 316 315 314 312 310 308 304 296 280 258 240 220 208 203
296 296 297 297 297 297 297 298 300 300 300 300 301 303 305 307 308 309 310 312 314 315 316 317 319 319 318 318 317 317 317 315 314 311 309 307 298 283 258 238 218 205 201
296 297 297 297 297 297 298 299 300 300 300 301 302 303 305 306 308 309 311 313 314 315 317 318 319 320 319 319 318 317 317 316 315 313 311 309 299 284 259 235 215 203 197
295 297 298 298 297 297 298 299 299 299 301 301 302 303 304 306 308 309 311 313 314 315 316 318 319 319 319 319 318 318 318 317 316 314 312 309 301 284 259 232 213 201 195
295 297 298 298 298 297 297 298 298 299 300 301 302 303 305 307 308 310 312 314 315 316 317 318 318 319 320 320 319 319 319 318 317 315 312 309 302 286 257 230 211 200 195
297 298 299 298 298 297 297 297 297 298 299 300 302 303 305 307 308 310 312 314 315 317 318 318 319 319 320 320 320 320 319 318 318 316 312 309 303 288 256 227 209 199 195
Height
5814 5811 5807 5803 5800 5796 5792 5788 5784 5780 5776 5772 5768 5765 5761 5758 5755 5752 5749 5746 5743 5740 5737 5734 5731 5729 5726 5723 5721 5719 5718 5717 5718 5719 5720 5723 5726 5731 5736 5741 5746 5752 5759
5807 5804 5800 5796 5792 5788 5783 5779 5775 5770 5766 5761 5757 5752 5748 5744 5741 5737 5734 5730 5727 5723 5720 5717 5713 5710 5706 5703 5699 5696 5694 5692 5691 5692 5693 5695 5698 5702 5708 5715 5722 5729 5736
5800 5796 5792 5787 5783 5779 5774 5769 5765 5760 5755 5750 5745 5740 5735 5731 5726 5722 5718 5714 5710 5706 5702 5698 5694 5690 5685 5681 5676 5672 5668 5665 5662 5661 5661 5662 5665 5669 5675 5682 5691 5700 5710
5792 5787 5783 5778 5774 5769 5764 5759 5754 5749 5743 5738 5733 5727 5722 5717 5711 5706 5702 5697 5693 5688 5684 5679 5674 5669 5664 5659 5653 5647 5641 5636 5632 5628 5626 5625 5627 5630 5636 5644 5654 5666 5678
5783 5778 5773 5769 5764 5758 5753 5748 5742 5737 5731 5726 5720 5714 5708 5703 5697 5691 5686 5680 5675 5670 5665 5659 5654 5648 5642 5635 5628 5621 5614 5607 5600 5595 5591 5588 5587 5589 5594 5602 5612 5626 5641
5773 5768 5763 5758 5753 5747 5742 5736 5730 5724 5718 5712 5707 5701 5695 5688 5682 5675 5669 5663 5657 5651 5644 5639 5632 5626 5619 5611 5603 5595 5586 5577 5569 5562 5556 5551 5549 5549 5552 5558 5568 5582 5599
5763 5758 5752 5747 5741 5736 5730 5724 5718 5711 5705 5699 5693 5687 5682 5675 5667 5660 5653 5646 5638 5631 5624 5617 5610 5603 5596 5588 5579 5568 5558 5548 5538 5529 5521 5515 5510 5508 5510 5515 5524 5537 5554
5752 5746 5741 5735 5729 5723 5717 5711 5705 5698 5692 5685 5678 5672 5666 5661 5655 5647 5637 5628 5620 5612 5604 5596 5588 5580 5571 5563 5554 5542 5531 5519 5508 5497 5488 5480 5473 5470 5471 5476 5484 5495 5510
5740 5735 5729 5723 5717 5711 5705 5698 5691 5684 5678 5671 5664 5657 5650 5644 5637 5632 5622 5612 5602 5592 5584 5575 5565 5556 5547 5537 5528 5516 5504 5492 5480 5468 5457 5448 5441 5437 5436 5439 5446 5456 5470
5727 5722 5716 5709 5704 5697 5691 5684 5678 5671 5663 5656 5649 5642 5634 5627 5620 5614 5606 5595 5585 5575 5565 5554 5544 5533 5523 5512 5502 5490 5478 5466 5453 5441 5429 5419 5412 5408 5406 5408 5413 5421 5434
5714 5709 5702 5696 5690 5684 5677 5670 5663 5656 5649 5641 5633 5626 5619 5610 5602 5595 5589 5579 5567 5555 5544 5533 5523 5511 5500 5488 5477 5466 5453 5441 5428 5416 5404 5395 5387 5382 5380 5380 5384 5391 5403
5701 5695 5688 5682 5676 5669 5662 5655 5648 5641 5634 5626 5618 5610 5602 5594 5585 5576 5570 5562 5552 5539 5525 5513 5501 5490 5478 5466 5455 5442 5430 5418 5405 5393 5382 5373 5365 5359 5356 5357 5360 5367 5377
5687 5680 5673 5668 5661 5654 5647 5640 5633 5626 5618 5611 5603 5594 5586 5577 5567 5558 5550 5543 5534 5524 5510 5494 5480 5469 5456 5445 5433 5421 5410 5397 5385 5373 5363 5353 5345 5339 5337 5337 5340 5346 5355
5672 5665 5659 5653 5646 5639 5632 5625 5618 5610 5603 5595 5587 5578 5569 5560 5550 5541 5532 5523 5515 5507 5494 5479 5463 5448 5436 5424 5413 5401 5390 5379 5367 5355 5345 5336 5328 5322 5319 5319 5322 5328 5337
5656 5650 5644 5638 5631 5624 5617 5610 5603 5595 5588 5580 5571 5562 5553 5543 5533 5524 5514 5504 5495 5487 5479 5464 5447 5432 5417 5405 5394 5382 5372 5361 5350 5339 5329 5320 5312 5306 5303 5303 5306 5312 5321
5641 5635 5628 5622 5616 5609 5602 5595 5588 5580 5572 5564 5556 5546 5537 5527 5517 5507 5497 5486 5476 5466 5458 5448 5432 5417 5402 5389 5377 5365 5355 5344 5334 5324 5314 5306 5298 5292 5289 5289 5292 5299 5308
5625 5619 5613 5607 5600 5594 5587 5580 5573 5565 5557 5549 5540 5530 5520 5510 5501 5491 5480 5470 5459 5448 5438 5430 5415 5401 5387 5374 5362 5350 5339 5328 5319 5310 5300 5292 5284 5279 5276 5276 5279 5286 5295
5610 5604 5597 5591 5585 5578 5571 5564 5557 5550 5542 5533 5524 5515 5505 5495 5485 5475 5465 5454 5443 5432 5421 5411 5401 5386 5373 5360 5348 5337 5326 5315 5305 5297 5287 5278 5271 5266 5263 5264 5267 5274 5284
5595 5589 5582 5576 5570 5563 5556 5549 5542 5534 5526 5517 5508 5499 5490 5480 5470 5460 5450 5439 5428 5417 5405 5394 5384 5372 5359 5347 5335 5325 5313 5303 5293 5284 5275 5266 5259 5253 5251 5252 5256 5264 5274
5580 5573 5567 5561 5554 5548 5541 5534 5526 5519 5511 5502 5493 5484 5475 5465 5456 5446 5436 5425 5414 5403 5391 5380 5369 5358 5346 5334 5322 5312 5302 5292 5281 5272 5263 5255 5248 5242 5240 5241 5245 5253 5263
5565 5558 5552 5545 5539 5532 5526 5518 5511 5503 5495 5487 5479 5470 5461 5451 5442 5432 5422 5411 5400 5389 5378 5366 5355 5344 5333 5321 5310 5299 5289 5281 5272 5260 5252 5244 5236 5232 5230 5231 5236 5243 5254
5550 5543 5537 5530 5524 5517 5510 5503 5495 5488 5480 5473 5464 5456 5447 5438 5428 5418 5408 5398 5387 5376 5365 5353 5343 5331 5321 5309 5298 5288 5278 5270 5262 5253 5241 5235 5227 5222 5220 5221 5226 5234 5245
5535 5528 5522 5515 5509 5503 5495 5488 5480 5473 5466 5459 5450 5442 5434 5425 5415 5406 5396 5386 5375 5363 5352 5342 5331 5320 5309 5299 5288 5279 5269 5259 5251 5242 5232 5226 5219 5214 5212 5213 5217 5226 5237
5520 5514 5507 5501 5494 5488 5480 5473 5465 5459 5453 5445 5437 5429 5421 5412 5403 5393 5384 5375 5364 5353 5342 5331 5320 5310 5299 5288 5278 5269 5260 5251 5243 5233 5224 5217 5212 5207 5205 5206 5210 5219 5231
5506 5500 5493 5486 5479 5473 5465 5458 5451 5446 5439 5432 5424 5416 5408 5400 5391 5381 5373 5364 5354 5343 5332 5321 5310 5300 5289 5279 5269 5260 5252 5243 5236 5227 5218 5211 5206 5202 5200 5201 5205 5213 5226
5492 5485 5478 5471 5465 5458 5451 5445 5438 5432 5426 5419 5412 5404 5396 5388 5379 5370 5361 5352 5343 5333 5322 5312 5302 5291 5281 5272 5262 5252 5244 5236 5228 5221 5213 5206 5201 5197 5196 5197 5201 5209 5221